Starlink 4349

operational
NORAD ID: 53044 Int'l Des: 2022-077 Owner: SPXS Country: US Constellation: starlink
LEOCIRCULARRETROGRADESSO

About Starlink 4349

Description loading...

Live Position

Loading 3D Globe...

Upcoming Passes

Altitude History

Altitude vs Time

uPlot chart will show altitude changes over time

Two-Line Element Set

1 53044U 22077B 26033.58335648 .00365525 00000-0 35738-2 0 9994
2 53044 97.6032 220.3666 0001555 68.2937 16.6214 15.64992466 5895
Epoch: Feb 2, 2026 • Age: 16 hours

Current Status

Altitude 379.5 km
Velocity 7.68 km/s
Sub-Earth Point -19.95°S, 6.06°W
Launch Date Jul 11, 2022
Age 3.5 years
Type internet

Technical Details

Classification Payload
Mass 297.00 kg
Dry Mass 275.00 kg
Total Mass 297.00 kg
Length 0.20 m
Diameter 2.80 m
Span 9.00 m
Shape Box + pan
Manufacturer SPXS
Bus Type Starlink
Phase Status In Orbit
Owner/State SPXS/US

Large Constellations

Loading constellations...